#timestamp,LO_Frequency,Hit,StdDev 
1512334815.3,286047000.7,N
1512334835.1,286046999.0,N
1512334836.0,286046999.0,N
1512334855.8,286046998.1,N
1512334875.7,286047000.0,N
1512334895.5,286046998.3,N
1512334915.3,286047000.3,N
1512334935.2,286046999.1,N
1512334955.9,286046996.6,N
1512334975.7,286046993.4,N
1512334995.5,286046995.9,N
1512335015.4,286046990.8,N
1512335035.2,286046988.8,N
1512335055.0,286046991.2,N
1512335055.9,286046991.2,N
1512335075.8,286046990.9,N
1512335095.6,286046989.4,N
1512335115.4,286046986.0,N
1512335135.3,286046984.2,N
1512335155.1,286046986.1,N
1512335175.8,286046984.1,N
1512335195.7,286046983.7,N
1512335215.5,286046982.3,N
1512335235.3,286046984.6,N
1512335255.2,286046984.9,N
1512335275.9,286046987.7,N
1512335295.7,286046986.0,N
1512335315.6,286046987.8,N
1512335335.4,286046987.3,N
1512335355.2,286046987.2,N
1512335375.0,286046992.8,N
1512335376.0,286046992.8,N
1512335395.8,286046992.1,N
1512335415.6,286046996.0,N
1512335435.4,286046996.3,N
1512335455.3,286046997.6,N
1512335475.1,286046998.3,N
1512335495.8,286046999.2,N
1512335515.7,286046997.3,N
1512335535.5,286046996.8,N
1512335555.3,286046997.0,N
1512335575.2,286046996.5,N
1512335595.9,286047000.7,N
1512335615.7,286046998.2,N
1512335635.6,286047001.2,N
1512335655.4,286046999.7,N
1512335675.2,286047003.9,N
1512335695.0,286047008.3,N
1512335696.0,286047008.3,N
1512335715.8,286047015.5,N
1512335735.6,286047014.4,N
1512335755.4,286047015.3,N
1512335775.3,286047017.5,N
1512335795.1,286047015.7,N
1512335815.8,286047015.4,N
1512335835.7,286047014.5,N
1512335855.5,286047011.2,N
1512335875.3,286047013.7,N
1512335895.2,286047010.8,N
1512335915.9,286047005.3,N
1512335935.7,286047005.1,N
1512335955.6,286047001.4,N
1512335975.4,286047005.4,N
1512335995.2,286047006.2,N
1512336015.1,286047007.4,N
1512336016.0,286047007.4,N
1512336035.8,286047008.3,N
1512336055.6,286047005.2,N
1512336075.5,286047004.4,N
1512336095.3,286047000.1,N
1512336115.1,286047000.4,N
1512336135.8,286047000.6,N
1512336155.7,286046995.5,N
1512336175.5,286046995.9,N
1512336195.3,286046994.7,N
1512336215.2,286046990.1,N
1512336235.9,286046992.4,N
1512336255.7,286046990.5,N
1512336275.6,286046990.7,N
1512336295.4,286046987.5,N
1512336315.2,286046988.8,N
1512336335.1,286046989.1,N
1512336336.0,286046989.1,N
1512336355.8,286046992.9,N
1512336375.6,286046989.7,N
1512336395.5,286046985.6,N
1512336415.3,286046985.7,N
1512336435.1,286046985.8,N
1512336455.9,286046983.4,N
1512336475.7,286046980.9,N
1512336495.5,286046981.1,N
1512336515.3,286046979.8,N
1512336535.2,286046975.7,N
1512336555.0,286046976.1,N
1512336555.9,286046976.1,N
1512336575.7,286046975.1,N
1512336595.6,286046975.5,N
1512336615.4,286046975.2,N
1512336635.2,286046976.7,N
1512336655.1,286046976.2,Y
1512336656.0,286046976.2,P
1512336675.8,286046989.5,N
1512336695.6,286046990.8,N
1512336715.5,286046985.6,N
1512336735.3,286046987.7,N
1512336755.1,286046985.3,Y
1512336775.9,286047004.3,P
1512336795.7,286047000.3,N
1512336815.5,286046999.7,N
1512336835.4,286046997.9,N
1512336855.2,286046996.1,N
1512336875.0,286046997.3,N
1512336875.9,286046997.3,N
1512336895.8,286046998.5,N
1512336915.6,286046995.0,N
1512336935.4,286046994.1,N
1512336955.2,286046992.4,N
1512336975.1,286046995.8,N
1512336976.0,286046995.8,N
1512336995.8,286046992.9,N
1512337015.6,286046991.2,N
1512337035.5,286046990.5,N
1512337055.3,286046992.2,N
1512337075.1,286046996.1,N
1512337095.9,286046992.4,N
1512337115.7,286046994.1,N
1512337135.5,286046997.9,N
1512337155.4,286046996.6,N
1512337175.2,286046998.5,N
1512337195.0,286047001.0,N
1512337195.9,286047001.0,N
1512337215.8,286047003.0,N
1512337235.6,286047000.1,N
1512337255.4,286047001.3,N
1512337275.2,286047003.8,N
1512337295.1,286047007.2,N
1512337296.0,286047007.2,N
1512337315.8,286047008.8,N
1512337335.6,286047007.3,N
1512337355.5,286047006.2,N
1512337375.3,286047010.5,N
1512337395.1,286047008.6,N
1512337415.9,286047008.1,N
1512337435.7,286047006.9,N
1512337455.5,286047005.2,N
1512337475.4,286047005.0,N
1512337495.2,286047009.9,N
1512337515.0,286047008.9,N
1512337515.9,286047008.9,N
1512337535.8,286047006.7,N
1512337555.6,286047008.5,N
1512337575.4,286047008.9,N
1512337595.2,286047013.7,N
1512337615.1,286047010.8,N
1512337616.0,286047010.8,N
1512337635.8,286047012.6,N
1512337655.6,286047011.2,N
1512337675.5,286047010.4,N
1512337695.3,286047008.3,N
1512337715.1,286047007.7,N
1512337735.9,286047011.7,Y
1512337755.7,286047007.6,P
1512337775.5,286047005.5,P
1512337795.4,286047007.5,P
1512337815.2,286047002.6,N
1512337835.0,286047004.8,N
1512337835.9,286047004.8,N
1512337855.8,286047007.1,Y
1512337875.6,286047002.8,P
1512337895.4,286047001.2,N
1512337915.3,286047001.0,N
1512337935.1,286046998.0,N
1512337936.0,286046998.0,N
1512337955.8,286046992.1,N
1512337975.7,286046991.2,N
1512337995.5,286046987.9,N
1512338015.3,286046987.5,N
1512338035.2,286046989.3,N
1512338055.9,286046991.0,N
1512338075.7,286046990.4,N
1512338095.6,286046988.8,N
1512338115.4,286046988.1,N
1512338135.2,286046986.1,N
1512338155.0,286046984.8,N
1512338155.9,286046984.8,N
1512338175.8,286046984.3,N
1512338195.6,286046984.7,N
1512338215.4,286046984.8,N
1512338235.3,286046985.3,N
1512338255.1,286046986.8,N
1512338275.8,286046984.8,N
1512338295.7,286046985.0,N
1512338315.5,286046980.5,Y
1512338335.3,286046990.8,P
1512338355.2,286046990.8,P
1512338375.9,286046990.7,P
1512338395.7,286046990.2,Y
